Weather History for Frankfort, KY

Change the Weather History Date:

Saturday, October 6, 2012

  Actual Average Record
Temperature  
Mean Temperature 50 °F 60 °F  
Max Temperature 59 °F 72 °F 93 °F (1941)
Min Temperature 40 °F 47 °F 31 °F (1980)
Degree Days  
Heating Degree Days 15 7  
Month to date heating degree days 28 36  
Since 1 July heating degree days 97 90  
Cooling Degree Days 0 1  
Month to date cooling degree days 0 8  
Year to date cooling degree days 1308 1143  
Moisture  
Dew Point 38 °F    
Average Humidity 65    
Maximum Humidity 96    
Minimum Humidity 33    
Precipitation  
Precipitation 0.08 in 0.10 in 1.60 in (1995)
Month to date precipitation 0.53 0.59  
Year to date precipitation 32.13 35.23  
Sea Level Pressure  
Sea Level Pressure 30.10 in    
Wind  
Wind Speed 5 mph (NW)    
Max Wind Speed 17 mph    
Max Gust Speed 24 mph    
Visibility 10 miles    
Events Rain    
T = Trace of Precipitation, MM = Missing Value Source: NWS Daily Summary

Daily Weather History Graph

Daily Weather History Graph

Search for Another Location

Airport:

Trip Planner

Search our weather history database for the weather conditions in past years. The results will help you decide how hot, cold, wet, or windy it might be!

Date:

Astronomy

Oct. 06, 2012 Rise Set
Actual Time 7:40 AM EDT 7:14 PM EDT
Civil Twilight 7:13 AM EDT 7:40 PM EDT
Nautical Twilight 6:43 AM EDT 8:11 PM EDT
Astronomical Twilight 6:12 AM EDT 8:41 PM EDT
Moon 11:33 PM EDT (10/6) 1:30 PM EDT (10/6)
Length of Visible Light 12h 26m
Length of Day
11h 33m
Waning Gibbous, 65% of the Moon is Illuminated
Oct 6
Waning Gibbous
Oct 8
Last Quarter
Oct 15
New
Oct 21
First Quarter
Oct 29
Full

Hourly Weather History & Observations

Time (EDT) Temp. Windchill Dew Point Humidity Pressure Visibility Wind Dir Wind Speed Gust Speed Precip Events Conditions
12:10 AM 48.2 °F - 44.6 °F 87% 30.02 in 10.0 mi NNW 12.7 mph 23.0 mph N/A   Overcast
12:53 AM 46.9 °F - 43.0 °F 86% 30.06 in 7.0 mi NW 18.4 mph 25.3 mph 0.01 in Rain Light Rain
1:48 AM 44.6 °F 40.7 °F 42.8 °F 93% 30.04 in 9.0 mi North 6.9 mph - 0.03 in Rain Light Rain
1:53 AM 45.0 °F 41.8 °F 42.1 °F 90% 30.05 in 9.0 mi NNW 5.8 mph - 0.03 in Rain Light Rain
2:14 AM 44.6 °F 40.7 °F 42.8 °F 93% 30.06 in 8.0 mi NNW 6.9 mph - 0.02 in Rain Light Rain
2:31 AM 44.6 °F 40.7 °F 42.8 °F 93% 30.07 in 10.0 mi NW 6.9 mph - 0.03 in   Overcast
2:42 AM 44.6 °F 40.7 °F 42.8 °F 93% 30.07 in 10.0 mi NW 6.9 mph - 0.03 in Rain Light Rain
2:53 AM 44.1 °F 39.5 °F 42.1 °F 93% 30.05 in 10.0 mi NNW 8.1 mph - 0.03 in   Overcast
3:53 AM 44.1 °F 39.0 °F 42.1 °F 93% 30.07 in 10.0 mi NW 9.2 mph - 0.02 in Rain Light Rain
4:28 AM 42.8 °F 37.5 °F 39.2 °F 87% 30.07 in 10.0 mi NNW 9.2 mph - 0.01 in   Overcast
4:37 AM 42.8 °F 37.5 °F 41.0 °F 93% 30.08 in 10.0 mi NNW 9.2 mph - 0.01 in   Overcast
4:47 AM 42.8 °F 38.0 °F 41.0 °F 93% 30.08 in 10.0 mi NNW 8.1 mph - 0.01 in   Overcast
4:53 AM 43.0 °F 39.5 °F 41.0 °F 93% 30.07 in 10.0 mi NNW 5.8 mph - 0.01 in   Overcast
5:18 AM 42.8 °F 40.1 °F 42.8 °F 100% 30.08 in 10.0 mi NNW 4.6 mph - N/A   Overcast
5:22 AM 42.8 °F 39.3 °F 41.0 °F 93% 30.09 in 10.0 mi NW 5.8 mph - N/A   Overcast
5:33 AM 42.8 °F 38.6 °F 41.0 °F 93% 30.10 in 10.0 mi NW 6.9 mph - N/A   Overcast
5:53 AM 43.0 °F 40.3 °F 41.0 °F 93% 30.10 in 10.0 mi NW 4.6 mph - N/A   Overcast
6:00 AM 42.8 °F 39.3 °F 41.0 °F 93% 30.10 in 10.0 mi NW 5.8 mph - N/A   Overcast
6:53 AM 42.1 °F 37.1 °F 39.0 °F 89% 30.12 in 10.0 mi NW 8.1 mph - N/A   Mostly Cloudy
7:39 AM 41.0 °F 38.0 °F 37.4 °F 87% 30.14 in 10.0 mi WNW 4.6 mph - N/A   Scattered Clouds
7:53 AM 39.9 °F 37.8 °F 37.9 °F 93% 30.14 in 10.0 mi NW 3.5 mph - N/A   Clear
8:53 AM 42.1 °F 39.2 °F 39.0 °F 89% 30.16 in 10.0 mi Variable 4.6 mph - N/A   Clear
9:06 AM 42.8 °F 39.3 °F 39.2 °F 87% 30.17 in 10.0 mi WNW 5.8 mph - N/A   Partly Cloudy
10:53 AM 46.9 °F - 36.0 °F 66% 30.18 in 10.0 mi Variable 3.5 mph - N/A   Clear
11:53 AM 51.1 °F - 34.0 °F 52% 30.17 in 10.0 mi NNW 9.2 mph - N/A   Clear
12:53 PM 53.1 °F - 33.1 °F 47% 30.15 in 10.0 mi NNW 5.8 mph - N/A   Clear
1:53 PM 55.9 °F - 30.9 °F 39% 30.13 in 10.0 mi NW 5.8 mph - N/A   Clear
2:53 PM 55.9 °F - 33.1 °F 42% 30.09 in 10.0 mi Calm Calm - N/A   Clear
3:53 PM 57.9 °F - 30.0 °F 35% 30.10 in 10.0 mi Variable 5.8 mph - N/A   Clear
4:53 PM 57.9 °F - 28.0 °F 32% 30.09 in 10.0 mi WNW 8.1 mph - N/A   Clear
5:53 PM 57.0 °F - 30.0 °F 36% 30.10 in 10.0 mi NW 6.9 mph - N/A   Clear
6:53 PM 53.1 °F - 32.0 °F 45% 30.12 in 10.0 mi WNW 4.6 mph - N/A   Clear
7:53 PM 52.0 °F - 36.0 °F 54% 30.12 in 10.0 mi NNW 3.5 mph - N/A   Mostly Cloudy
8:53 PM 51.1 °F - 35.1 °F 54% 30.13 in 10.0 mi Calm Calm - N/A   Overcast
9:53 PM 51.1 °F - 35.1 °F 54% 30.12 in 10.0 mi North 3.5 mph - N/A   Overcast
10:53 PM 50.0 °F - 35.1 °F 57% 30.14 in 10.0 mi WNW 3.5 mph - N/A   Overcast
11:53 PM 48.9 °F - 36.0 °F 61% 30.14 in 10.0 mi WNW 4.6 mph - N/A   Overcast